DW3201 Weather Reports


Display with metric or nautical units.
time (UTC)temp
F
wind
direction
speed
MPH
gust
MPH
rain 1hr
in
rain 24hr
in
rain mn
in
humidity
%
barometer
mb
20260502204559 55 236 6.0 13.0 0.00 0.01 0.01 33 1015.3
20260502203112 56 277 1.0 5.0 0.00 0.01 0.01 35 1015.4
20260502201554 56 218 6.0 10.0 0.00 0.01 0.01 32 1015.5
20260502200055 55 295 5.0 14.0 0.00 0.01 0.01 35 1015.9
20260502194556 54 273 2.0 7.0 0.00 0.01 0.01 35 1016.1
20260502193054 55 276 3.0 10.0 0.00 0.01 0.01 34 1016.2
20260502191616 55 101 4.0 10.0 0.00 0.01 0.01 34 1016.4
20260502190106 55 256 1.0 6.0 0.00 0.01 0.01 34 1016.6
20260502184554 55 117 1.0 8.0 0.00 0.01 0.01 36 1016.8
20260502183059 55 257 4.0 10.0 0.00 0.01 0.01 36 1017.1
20260502181557 54 211 3.0 13.0 0.00 0.01 0.01 36 1017.1
20260502163107 52 301 3.0 6.0 0.00 0.01 0.01 40 1018.1
20260502161558 52 245 1.0 7.0 0.00 0.01 0.01 43 1018.2
20260502160104 51 305 1.0 9.0 0.00 0.01 0.01 42 1018.3
20260502151555 48 293 3.0 9.0 0.00 0.01 0.01 54 1018.5
20260502130105 39 271 1.0 3.0 0.00 0.00 0.00 86 1019.0
20260502123104 36 269 0.0 2.0 0.00 0.00 0.00 88 1018.9
20260502121558 34 0 0.0 1.0 0.00 0.00 0.00 90 1018.9
20260502114557 32 274 1.0 2.0 0.00 0.00 0.00 92 1018.5
20260502113057 31 263 0.0 1.0 0.00 0.00 0.00 93 1018.6
20260502111555 30 0 0.0 1.0 0.00 0.00 0.00 94 1018.5
20260502110055 28 0 0.0 0.0 0.00 0.00 0.00 94 1018.5
20260502104555 28 0 0.0 0.0 0.00 0.00 0.00 94 1018.5
20260502103051 28 0 0.0 0.0 0.00 0.00 0.00 94 1018.4
20260502101554 28 0 0.0 0.0 0.00 0.00 0.00 94 1018.4
20260502070100 31 0 0.0 0.0 0.00 0.00 0.00 94 1018.3
20260502064556 31 0 0.0 0.0 0.00 0.00 0.00 94 1018.3
20260502063057 31 0 0.0 0.0 0.00 0.00 0.00 93 1018.4
20260502061554 31 0 0.0 0.0 0.00 0.00 0.00 94 1018.5
20260502060100 31 0 0.0 1.0 0.00 0.00 0.00 93 1018.6
20260502054557 31 0 0.0 1.0 0.00 0.00 0.00 93 1018.4
20260502053053 31 281 1.0 1.0 0.00 0.00 0.00 93 1018.4
20260502051601 31 0 0.0 1.0 0.00 0.00 0.00 93 1018.5
20260502050055 32 0 0.0 0.0 0.00 0.00 0.00 93 1018.6
20260502044555 31 0 0.0 0.0 0.00 0.01 0.00 92 1018.6
20260502043059 32 271 0.0 1.0 0.00 0.01 0.00 92 1018.6
20260502041555 32 0 0.0 1.0 0.00 0.01 0.00 92 1018.4
20260502040057 32 271 0.0 1.0 0.00 0.01 0.00 90 1018.4
20260502034555 33 0 0.0 1.0 0.00 0.02 0.00 90 1018.5
20260502033052 33 0 0.0 0.0 0.00 0.02 0.00 89 1018.4
20260502031552 34 0 0.0 0.0 0.00 0.02 0.00 87 1018.3
20260502030054 35 0 0.0 1.0 0.00 0.02 0.00 86 1018.2
20260502024549 37 0 0.0 1.0 0.00 0.02 0.00 76 1018.2
20260502023052 38 0 0.0 2.0 0.00 0.02 0.00 76 1018.2
20260502021552 39 0 0.0 4.0 0.00 0.02 0.00 76 1018.2
20260502020054 39 0 0.0 3.0 0.00 0.02 0.00 76 1018.0
20260502014559 39 93 0.0 2.0 0.00 0.02 0.00 76 1017.8
20260502013054 39 337 0.0 1.0 0.00 0.02 0.00 74 1017.7
20260502011553 40 0 0.0 3.0 0.00 0.02 0.00 73 1017.6
20260502010059 40 133 1.0 4.0 0.00 0.02 0.00 69 1017.4
20260502004603 41 162 3.0 6.0 0.00 0.03 0.00 70 1017.4
20260502003053 41 70 5.0 7.0 0.00 0.03 0.00 71 1017.4
20260502001556 41 93 3.0 6.0 0.00 0.03 0.00 71 1017.3
20260502000108 41 89 3.0 8.0 0.00 0.03 0.00 70 1017.3
20260501234555 41 77 5.0 8.0 0.00 0.04 0.00 71 1017.2
20260501233103 41 57 5.0 10.0 0.00 0.04 0.00 72 1017.2
20260501231600 41 65 6.0 11.0 0.00 0.04 0.00 74 1017.2
20260501230055 41 349 6.0 13.0 0.00 0.04 0.00 73 1017.3
20260501224553 41 43 9.0 13.0 0.00 0.04 0.00 77 1017.4
20260501223100 41 49 10.0 15.0 0.00 0.04 0.00 78 1017.5
20260501221600 41 70 6.0 10.0 0.00 0.04 0.00 80 1017.4
20260501220057 41 75 9.0 14.0 0.00 0.04 0.00 80 1017.1
20260501214554 42 71 9.0 12.0 0.00 0.05 0.00 80 1016.8
20260501213057 42 98 1.0 4.0 0.00 0.05 0.00 75 1016.7
20260501211551 42 94 6.0 10.0 0.00 0.05 0.00 78 1016.5